www.pogodaiklimat.ru

Погода и климат >> Архив погоды >> Таиланд >> Саттахип


ПОГОДА в Саттахипе

  • Прогноз погоды в Саттахипе
  • Монитор погоды в Саттахипе

АРХИВ ПОГОДЫ в Саттахипе

Время (UTC), дата Ветер
(напр.,м/с)
 
Видим.   Явления Облачность Т
(С)
Тd
(С)
f
(%)
Тe
(С)
Тes
(С)
Комфортность P
(гПа)
Po
(гПа)
Тmin
(С)
Tmax
(С)
R
(мм)
R24
(мм)
S
(см)
21 18.06 Ю 10 10 км 10/4 300 м
[Cu Sc Ac As]
+28.4 +23.5 75 +39 +39 очень
душно
1006.7 1004.3
00 19.06 ЮЗ 6 10 км 9/6 300 м
[Cu Sc Ac As]
+28.6 +24.9 80 +41 +41 опасность
перегрева
1007.8 1005.3 +27.5
03 19.06 ЮЗ 3 10 км 9/3 600 м
[Cu Sc Ac As Cs]
+31.2 +24.8 69 +44 +49 опасность
перегрева
1009.4 1007.0
06 19.06 ЮЗ 8 10 км 8/3 600 м
[Cu Sc Ac As Cs]
+38.5 +22.4 40 +47 +49 опасность
перегрева
1007.4 1005.1
09 19.06 ЮЗ 6 10 км 8/3 600 м
[Cu hum Cs]
+33.0 +25.1 63 +47 +48 опасность
перегрева
1006.4 1004.0
12 19.06 ЮЗ 8 10 км зарница 10/4 300 м
[Cb cap Cs]
+30.0 +24.3 72 +42 +42 опасность
перегрева
1006.9 1004.5 +33.7
15 19.06 штиль 0 10 км 8/3 600 м
[Cu Sc Ac trans Cs]
+27.0 +24.1 84 +37 +37 очень
душно
1008.3 1005.8
18 19.06 штиль 0 10 км 6/3 600 м
[Cu Sc Ac trans Cs]
+25.9 +24.0 89 +36 +36 очень
душно
1008.0 1005.5
21 19.06 штиль 0 10 км 6/3 600 м
[Cu Sc Ac trans Cs]
+25.5 +24.0 91 +35 +35 очень
душно
1007.5 1005.1
00 20.06 штиль 0 10 км 6/1 600 м
[Cu hum Cs]
+27.8 +25.2 86 +40 +42 очень
душно
1009.1 1006.7 +25.3
03 20.06 ЮЗ 4 10 км 5/1 600 м
[Cu hum Ac lent Cs]
+33.3 +25.4 63 +48 +55 опасность
перегрева
1009.2 1006.8
06 20.06 Ю 8 10 км 5/1 600 м
[Cu hum Ac lent Cs]
+34.6 +24.6 56 +47 +50 опасность
перегрева
1008.0 1005.6
09 20.06 Ю 8 10 км 6/1 600 м
[Cb cap Ac lent Cs]
+33.5 +25.8 64 +49 +50 опасность
перегрева
1006.6 1004.2
12 20.06 Ю 8 10 км 8/3 600 м
[Cu hum Ac lent Cs]
+30.5 +25.1 73 +44 +44 опасность
перегрева
1006.9 1004.5 +34.9
15 20.06 СЗ 3 10 км 6/1 600 м
[Cu hum Ac lent Cs]
+28.5 +25.4 83 +42 +42 опасность
перегрева
1008.0 1005.5
18 20.06 З 3 10 км 8/1 600 м
[Cu hum Cs]
+28.5 +25.4 83 +42 +42 опасность
перегрева
1007.3 1004.9
21 20.06 З 8 10 км 9/1 600 м
[Cu hum Cs]
+29.4 +23.6 71 +40 +40 очень
душно
1006.7 1004.3
00 21.06 штиль 0 10 км 8/1 600 м
[Cu hum Ac lent Cs]
+28.8 +25.2 81 +42 +43 опасность
перегрева
1007.7 1005.3 +28.2
03 21.06 ЮЗ 8 1000 м 8/3 600 м
[Cu med, cong Ac lent Cs]
+34.0 +24.5 58 +47 +48 опасность
перегрева
1008.8 1006.4
06 21.06 СЗ 6 10 км 6/1 600 м
[Cu hum Ac lent Cs]
+35.0 +22.5 48 +44 +49 опасность
перегрева
1006.8 1004.5
09 21.06 ЮЗ 6 10 км 5/1 600 м
[Cu med, cong Cs]
+35.5 +24.2 52 +47 +50 опасность
перегрева
1005.4 1003.0
12 21.06 ЮЗ 6 10 км 8/1 600 м
[Cu hum Cs]
+31.0 +24.6 69 +44 +44 опасность
перегрева
1005.2 1002.8 +36.1
15 21.06 Ю 4 10 км 8/1 600 м
[Cu hum Cs]
+29.4 +26.0 82 +44 +44 опасность
перегрева
1006.5 1004.1
18 21.06 штиль 0 10 км 8/1 600 м
[Cu hum Ac lent Cs]
+29.0 +25.5 81 +43 +43 опасность
перегрева
1006.0 1003.6
21 21.06 штиль 0 10 км 8/1 600 м
[Cu hum Cs]
+28.0 +25.1 84 +40 +40 очень
душно
1005.4 1003.0
00 22.06 СЗ 4 10 км 6/0
[Cs]
+29.6 +25.2 77 +43 +44 опасность
перегрева
1005.6 1003.2 +28.0
03 22.06 ЮЗ 6 10 км 8/4 300 м
[Cb cap Cs]
+34.0 +24.7 58 +47 +50 опасность
перегрева
1006.5 1004.1
06 22.06 З 2 8000 м гроза, ливневой дождь 10/5 300 м
[Cb cap Ac As Cs]
+30.5 +24.8 72 +44 +49 опасность
перегрева
1005.6 1003.2 0.0
09 22.06 ЮЗ 3 10 км {гроза, дождь} 8/1 600 м
[Cb cap Cs]
+32.3 +25.6 68 +47 +52 опасность
перегрева
1004.4 1002.0 0.1
12 22.06 ЮЗ 4 10 км {гроза, дождь} 8/3 300 м
[Cu hum Cs]
+30.0 +25.0 75 +43 +43 опасность
перегрева
1005.0 1002.6 +35.6 0.1
15 22.06 штиль 0 10 км 6/1 600 м
[Cu hum Cs]
+28.0 +25.9 88 +42 +42 опасность
перегрева
1006.0 1003.6
18 22.06 штиль 0 10 км 6/1 600 м
[Cu hum Cs]
+28.8 +27.3 92 +46 +46 опасность
перегрева
1005.4 1003.0
21 22.06 штиль 0 10 км 8/3 600 м
[Cu hum Cs]
+29.0 +26.6 87 +45 +45 опасность
перегрева
1004.8 1002.4
00 23.06 штиль 0 10 км 6/1 600 м
[Cu hum Cs]
+29.0 +26.9 88 +45 +47 опасность
перегрева
1005.6 1003.2 +27.6
03 23.06 Ю 4 10 км 8/4 600 м
[Cb cap Ac lent Cs]
+31.0 +26.1 75 +46 +51 опасность
перегрева
1006.8 1004.4
06 23.06 СВ 4 8000 м гроза, ливневой дождь 8/4 300 м
[Cb cap Ac As Cs]
+31.5 +25.9 72 +47 +52 опасность
перегрева
1005.8 1003.4 0.0
09 23.06 ЮЗ 2 8000 м слаб. дождь {гроза} 8/4 600 м
[Cb cap Ac As Cs]
+31.0 +26.1 75 +46 +50 опасность
перегрева
1004.6 1002.2 4
12 23.06 Ю 4 8000 м слаб. дождь {гроза} 8/4 300 м
[Cb cap Ac As Cs]
+29.8 +25.1 76 +43 +43 опасность
перегрева
1005.3 1002.9 +35.0 3
15 23.06 Ю 4 8000 м слаб. дождь 8/4 300 м
[Cb cap Ac As Cs]
+28.0 +25.9 88 +42 +42 опасность
перегрева
1007.3 1004.9 2
18 23.06 ЮЗ 4 8000 м дымка {дождь} 8/3 600 м
[Cu Sc Ac As Cs]
+28.0 +25.1 84 +40 +40 очень
душно
1006.2 1003.8 2
21 23.06 Ю 4 8000 м дымка 8/1 600 м
[Cu hum Ac lent Cs]
+28.0 +26.6 92 +43 +43 опасность
перегрева
1004.8 1002.4
00 24.06 Ю 4 8000 м слаб. ливневой дождь 8/4 600 м
[Cb cap Ac As Cs]
+30.0 +25.0 75 +43 +44 опасность
перегрева
1007.2 1004.8 +27.0 0.0
03 24.06 штиль 0 9000 м слаб. ливневой дождь 9/3 300 м
[Cb cap Ac As Cs]
+32.0 +26.0 71 +48 +56 опасность
перегрева
1008.0 1005.6 3
06 24.06 Ю 2 9000 м дымка {ливн. осадки} 10/1 300 м
[Cb cap Ac As Cs]
+30.5 +26.0 77 +46 +55 опасность
перегрева
1007.3 1004.9 0.0
09 24.06 Ю 4 9000 м дымка 9/3 600 м
[Cu hum Ac lent Cs]
+31.3 +25.8 73 +47 +49 опасность
перегрева
1006.2 1003.8
12 24.06 Ю 4 9000 м дымка 9/3 600 м
[Cu Sc Ac lent Cs]
+29.6 +25.0 76 +42 +42 опасность
перегрева
1007.1 1004.6 +32.2
15 24.06 ЮЗ 2 8000 м зарница 8/1 600 м
[Cb cap Ac lent Cs]
+29.2 +25.4 80 +43 +43 опасность
перегрева
1008.6 1006.1
18 24.06 Ю 2 9000 м 8/1 600 м
[Cu hum Ac lent Cs]
+28.6 +25.8 85 +43 +43 опасность
перегрева
1008.0 1005.5
21 24.06 ЮЗ 2 10 км 8/3 600 м
[Cu hum Ac lent Cs]
+28.4 +25.7 85 +42 +42 опасность
перегрева
1006.9 1004.5
00 25.06 Ю 4 10 км 8/1 600 м
[Cu hum Ac lent Cs]
+28.0 +25.9 88 +42 +42 опасность
перегрева
1008.5 1006.1 +27.0
03 25.06 Ю 6 10 км 9/3 600 м
[Cu Sc Ac lent Cs]
+32.6 +25.1 65 +47 +49 опасность
перегрева
1009.6 1007.2
06 25.06 ЮЗ 8 10 км 9/1 600 м
[Cu hum Ac lent Cs]
+33.8 +24.9 60 +47 +49 опасность
перегрева
1008.5 1006.1
09 25.06 Ю 6 10 км 9/1 600 м
[Cu hum Ac lent Cs]
+32.5 +24.7 64 +46 +47 опасность
перегрева
1007.0 1004.6
12 25.06 ЮЗ 6 10 км 9/3 600 м
[Cu Sc Ac trans Cs]
+29.3 +25.3 79 +43 +43 опасность
перегрева
1008.0 1005.6 +34.4
15 25.06 ЮЗ 4 10 км 6/1 600 м
[Cu hum Ac lent Cs]
+29.5 +25.5 79 +43 +43 опасность
перегрева
1009.4 1006.9

 

Местоположение метеостанции Саттахип (Таиланд): широта 12.68 долгота 100.98 высота над уровнем моря 18 м.

В архиве по умолчанию представлена погода в Саттахипе за последнюю неделю. Архивные данные за месяц целиком и за предыдущие месяцы, начиная с января 2011 года, Вы можете получить, выбрав интересующий диапазон дат из раскрывающегося списка и нажав кнопку "Ввод!".


*Определитесь, кто Вы:
робот инопланетянин человек

Внимание! Время в таблицах - всемирное. Для получения местного времени необходимо прибавить поправку, которая равна 7 ч.

Смотрите также архив погоды в соседних городах и на ближайших метеорологических станциях:

Погода в Хуайпонг Агромете (Таиланд) (17 км)
Погода в Паттайе (Таиланд) (30 км)
Погода в Районге (Таиланд) (41 км)
Погода на Ко Сичан (Таиланд) (58 км)
Погода в Чонбури (Таиланд) (77 км)
Погода в Ратбури (Таиланд) (77 км)
Погода в Бангкок Пилот (Таиланд) (88 км)
Погода в Самутрудкан Агромете (Таиланд) (97 км)
Погода в Чаченгсау (Таиланд) (104 км)
Погода в Хуахине (Таиланд) (112 км)

Пояснения к столбцам:

Ветер - указаны скорость ветра в м/с - средняя за 10 мин, порывы в срок и между сроками (в фигурных скобках) и направление, откуда дует ветер: С - северный, СВ - северо-восточный, В - восточный, ЮВ - юго-восточный, Ю - южный, ЮЗ - юго-западный, З - западный, СЗ - северо-западный.
Видимость - горизонтальная дальность видимости в метрах или километрах. При видимости от 1 до 10 км при отсутствии осадков обычно наблюдается дымка, при ухудшении видимости до 1 км и менее - туман. В сухую погоду видимость может ухудшаться дымом, пылью или мглою.
Явления - указаны атмосферные явления, наблюдавшиеся в срок или в последний час перед сроком; фигурными скобками обозначены явления, наблюдавшиеся между сроками (за 1-3 часа до срока); квадратными скобками обозначены град или гололедные отложения с указанием их диаметра в мм.
Облачность - указаны через наклонную черту общая и нижняя облачность в баллах и высота нижней границы облаков в метрах; квадратными скобками обозначены формы облаков: Ci - перистые, Cs - перисто-слоистые, Cc - перисто-кучевые, Ac - высококучевые, As - высокослоистые, Sc - слоисто-кучевые, Ns - слоисто-дождевые, Cu - кучевые, Cb - кучево-дождевые. Подробнее классификацию облаков см. в Атласе облаков (PDF).
T - Температура воздуха - температура, измеренная на высоте 2 м над землей.
Td - Температура точки росы - температура, при понижении до которой содержащийся в воздухе водяной пар достигнет насыщения.
f - Относительная влажность воздуха - влажноcть воздуха, измеренная на высоте 2 м над землей.
Te - Эффективная температура - температура, которую ощущает одетый по сезону человек в тени. Характеристика душности погоды. При расчете учитывается влияние влажности воздуха и скорости ветра на теплоощущения человека.
Tes - Эффективная температура на солнце - температура, которую ощущает человек, с поправкой на солнечный нагрев. Характеристика знойности погоды. Зависит от высоты солнца над горизонтом, облачности и скорости ветра. Ночью, в пасмурную погоду, а также при ветре 12 м/с и более поправка равна нулю.
P - Атмосферное давление - приведенное к уровню моря атмосферное давление.
Po - Атмосферное давление - измеренное на уровне метеостанции атмосферное давление.
Tmin - Минимальная температура - минимум температуры воздуха на высоте 2 м над землей.
Tmax - Максимальная температура - максимум температуры воздуха на высоте 2 м над землей.
R - Количество осадков - Количество выпавших осадков за период времени, мм. При наведении курсора мыши на число - период времени, за который выпало указанное количество осадков.
R24 - Количество осадков - Количество выпавших осадков за 24 часа, мм.
S - Снежный покров - Высота снежного покрова, см. При наведении курсора мыши на число - состояние снежного покрова и степень покрытия местности в баллах.